[[{"header":{"parameterUnit":"m.s-1","parameterCategory":1,"la1":30.2991,"la2":30.254,"lo1":-89.0895,"lo2":-89.0444,"dy":0.0017,"dx":0.0017,"nx":28,"ny":28,"refTime":"2023-11-15T03:00:00:Z","depth":0,"parameterNumber":2,"parameterNumberName":"U-component_of_WINDS"},"data":[0,0,0,0,0,0,0,0,0,0,0,0,0,0,0,0,0,0,0,0,0,0,0,0,0,0,0,0,0,0,0,0,0,0,0,0,0,0,0,0,0,0,0,0,0,0,0,0,0,0,0,0,0,0,0,0,0,0,-5.9413,-5.9415,0,-5.9636,-5.9638,-5.9641,-5.9589,-5.9584,-5.958,-5.9576,-5.9802,-5.9812,-5.9822,0,0,0,0,0,0,0,0,0,0,0,0,0,-5.8938,-5.8947,-5.9412,-5.9415,-5.9418,-5.9635,-5.9638,-5.9641,-5.9589,-5.9584,-5.9579,-5.9574,-5.9799,-5.9811,-5.9823,0,0,0,0,0,0,0,0,0,0,0,0,0,-5.9151,-5.895,-5.9412,-5.9418,-5.9421,-5.9635,-5.9639,-5.9642,-5.959,-5.9584,-5.9578,-5.9572,-5.9795,-5.9809,-5.9824,-6.0045,0,0,-5.987,-5.9876,0,0,0,0,0,0,0,0,-5.9139,-5.9169,-5.9414,-5.9418,-5.9422,-5.9578,-5.9554,-5.9777,-5.9592,-5.9526,-5.9576,-5.9569,-5.9732,-5.9752,-5.9808,-6.0055,-6.0065,-5.9871,-5.988,-5.9887,-5.9891,0,0,0,0,0,0,0,-5.9124,-5.9159,-5.9501,-5.9418,-5.9423,-5.9409,-5.9432,-5.9596,-5.9662,-5.9531,-5.9528,-5.9555,-5.9733,-5.9794,-5.9813,-6.0068,-5.9871,-5.9884,-5.9893,-5.9899,-6.0508,-6.0515,0,0,0,0,0,0,-5.9107,-5.9147,-5.9493,-5.9507,-5.9262,-5.9423,-5.9449,-5.9534,-5.966,-5.9674,-5.9561,-5.9552,-5.9771,-5.9795,-5.9821,-6.0088,-5.9887,-5.9901,-5.9909,-6.0501,-6.051,-6.0517,0,0,0,0,0,0,-5.9097,-5.9138,-5.9484,-5.9326,-5.9369,-5.9438,-5.9534,-5.9542,-5.9602,-5.9683,-5.9694,-5.9611,-5.9767,-5.98,-5.999,-6.0095,-5.9907,-5.9921,-6.0492,-6.0503,-6.0513,-6.0624,0,0,0,0,0,0,-5.9084,-5.9135,-5.922,-5.9329,-5.9378,-5.9651,-5.9541,-5.9551,-5.9629,-5.962,-5.9732,-5.9745,-5.9765,-5.9968,-6.0005,-6.0113,-5.9933,-6.0483,-6.0497,-6.051,-6.0612,-6.0638,-6.066,0,0,0,0,0,-5.9067,-5.9242,-5.9225,-5.9267,-5.9486,-5.9657,-5.9685,-5.9705,-5.9637,-5.9723,-5.9775,-5.9741,-6.0077,-5.9988,-6.0029,-6.0143,-6.0477,-6.0493,-6.0509,-6.0601,-6.0633,-6.0659,0,0,0,0,0,0,-5.9143,-5.9256,-5.9239,-5.9454,-5.9547,-5.9648,-5.9757,-5.9738,-5.9851,-5.9838,-5.9857,-5.9883,-6.0077,-6.0128,-6.0026,-6.0363,-6.0267,-6.0292,-6.0323,-6.0354,-6.0377,-6.0362,-5.9945,0,0,0,0,0,-5.9185,-5.9316,-5.9407,-5.9588,-5.9635,-5.9688,-5.9764,-5.9771,-5.9867,-5.9906,-5.9971,-6.0065,-6.0192,-6.0275,-6.0396,-6.0618,-6.0642,-6.0717,-6.0741,-6.076,-6.0782,-6.0904,-6.0939,-6.057,-6.057,-6.057,0,0,-5.9273,-5.9351,-5.9432,-5.9605,-5.9678,-5.9812,-5.9722,-5.9867,-5.9967,-5.9928,-6.0112,-6.0163,-6.0269,-6.0477,-6.0571,-6.0525,-6.0889,-6.0781,-6.0796,-6.0807,-6.0924,-6.0959,-6.099,-6.0581,-6.0579,-6.0578,0,0,-5.9502,-5.9574,-5.9733,-5.9808,-5.992,-5.9954,-5.9992,-6.0097,-6.013,-6.0316,-6.0289,-6.0407,-6.0625,-6.0702,-6.077,-6.1028,-6.1002,-6.1067,-6.1194,-6.1312,-6.1342,-6.1367,-6.1461,-6.1494,-6.1088,-6.1089,-6.1089,0,-5.9597,-5.98,-5.9817,-5.9967,-6.0044,-6.0015,-6.0177,-6.0248,-6.0393,-6.0447,-6.0393,-6.0667,-6.0736,-6.0961,-6.1025,-6.108,-6.1124,-6.1055,-6.1336,-6.1362,-6.1387,-6.1476,-6.1511,-6.1096,-6.1095,-6.1094,-6.1094,0,-5.9912,-6.0053,-6.0168,-6.031,-6.04,-6.0554,-6.0595,-6.0684,-6.0683,-6.0723,-6.0912,-6.0994,-6.1131,-6.1185,-6.1185,-6.1411,-6.1379,-6.1331,-6.1235,-6.1429,-6.1513,-6.1548,-6.1106,-6.1104,-6.1101,-6.11,0,0,-6.0197,-6.0347,-6.039,-6.0454,-6.0575,-6.0684,-6.0836,-6.0972,-6.1049,-6.1149,-6.1278,-6.1463,-6.1419,-6.1496,-6.1504,-6.1608,-6.181,-6.1547,-6.155,-6.1594,-6.2065,-6.2102,-6.2141,-6.1792,-6.1799,-6.1804,-6.2056,0,-6.0438,-6.071,-6.073,-6.0974,-6.1105,-6.1079,-6.1212,-6.13,-6.1341,-6.1457,-6.1501,-6.1633,-6.1564,-6.1611,-6.1713,-6.1764,-6.1905,-6.1745,-6.1912,-6.1918,-6.1889,-6.2185,-6.2225,-6.246,-6.2089,-6.2095,-6.2099,0,-6.0757,-6.0869,-6.1127,-6.123,-6.1286,-6.1405,-6.1532,-6.1643,-6.1742,-6.1764,-6.185,-6.1844,-6.2001,-6.1898,-6.2114,-6.2005,-6.2074,-6.211,-6.2119,-6.2137,-6.2022,-6.2213,-6.2535,-6.2571,-6.2151,-6.2147,-6.2143,0,-6.0942,-6.1156,-6.1339,-6.1394,-6.1519,-6.1604,-6.1659,-6.1752,-6.1833,-6.1942,-6.1995,-6.2121,-6.219,-6.2287,-6.2315,-6.2238,-6.2531,-6.243,-6.2554,-6.2554,-6.2619,-6.2615,-6.2958,-6.266,-6.266,-6.2659,-6.2658,0,-6.1211,-6.137,-6.1423,-6.1536,-6.1713,-6.1734,-6.1909,-6.1959,-6.2042,-6.2163,-6.2147,-6.2261,-6.229,-6.2409,-6.2432,-6.2608,-6.2639,-6.2661,-6.2665,-6.2664,-6.2661,-6.2711,-6.2696,-6.2668,-6.2666,-6.2664,-6.2663,0,-6.1448,-6.149,-6.1687,-6.1789,-6.1818,-6.1945,-6.2032,-6.2139,-6.2177,-6.2331,-6.2368,-6.2428,-6.2567,-6.2604,-6.2771,-6.2785,-6.2994,-6.2982,-6.2961,-6.2961,-6.3084,-6.3072,-6.3473,-6.3527,-6.3192,-6.3195,-6.3197,0,-6.1618,-6.174,-6.1855,-6.1936,-6.1996,-6.2126,-6.2208,-6.2233,-6.2319,-6.2441,-6.2535,-6.2672,-6.2784,-6.3007,-6.3065,-6.3192,-6.3184,-6.3316,-6.3203,-6.3198,-6.3188,-6.3181,-6.3194,-6.3338,-6.3341,-6.3344,-6.3346,0,-6.1916,-6.1931,-6.2051,-6.2179,-6.2278,-6.2379,-6.2477,-6.2543,-6.2581,-6.2679,-6.2822,-6.2909,-6.3079,-6.3216,-6.3345,-6.34,-6.3381,-6.3381,-6.3417,-6.3417,-6.3401,-6.3413,-6.3021,-6.3372,-6.337,-6.3368,-6.3366,-6.3365,-6.2126,-6.2234,-6.2332,-6.2466,-6.2542,-6.2634,-6.2741,-6.2792,-6.2912,-6.3054,-6.3061,-6.3216,-6.3312,-6.3482,-6.3545,-6.3667,-6.3627,-6.3679,-6.3692,-6.3705,-6.3716,-6.338,-6.369,-6.3689,-6.3689,-6.3688,-6.3688,0,-6.2424,-6.2486,-6.261,-6.2747,-6.2853,-6.2825,-6.2931,-6.3021,-6.3159,-6.325,-6.3361,-6.3525,-6.3658,-6.3726,-6.3857,-6.3941,-6.3936,-6.3975,-6.397,-6.3984,-6.3743,-6.37,-6.3978,-6.3978,-6.3978,-6.3978,-6.3978,-6.3978,-6.2592,-6.2774,-6.28,-6.3019,-6.3079,-6.3233,-6.3296,-6.338,-6.3453,-6.3639,-6.3749,-6.3793,-6.3875,-6.4012,-6.4132,-6.4149,-6.4198,-6.4244,-6.4255,-6.403,-6.4,-6.3972,-6.3932,-6.4254,-6.4254,-6.4486,-6.4488,-6.449]},{"header":{"parameterUnit":"m.s-1","parameterCategory":1,"la1":30.2991,"la2":30.254,"lo1":-89.0895,"lo2":-89.0444,"dy":0.0017,"dx":0.0017,"nx":28,"ny":28,"refTime":"2023-11-15T03:00:00:Z","depth":0,"parameterNumber":3,"parameterNumberName":"V-component_of_WINDS"},"data":[0,0,0,0,0,0,0,0,0,0,0,0,0,0,0,0,0,0,0,0,0,0,0,0,0,0,0,0,0,0,0,0,0,0,0,0,0,0,0,0,0,0,0,0,0,0,0,0,0,0,0,0,0,0,0,0,0,0,-6.453,-6.453,0,-6.4529,-6.4529,-6.4529,-6.4387,-6.4383,-6.4379,-6.4376,-6.4373,-6.4376,-6.4379,0,0,0,0,0,0,0,0,0,0,0,0,0,-6.441,-6.4413,-6.453,-6.453,-6.453,-6.4529,-6.4529,-6.4529,-6.4387,-6.4383,-6.4378,-6.4374,-6.4372,-6.4376,-6.438,0,0,0,0,0,0,0,0,0,0,0,0,0,-6.4441,-6.4414,-6.453,-6.446,-6.4453,-6.4529,-6.4529,-6.4529,-6.4388,-6.4383,-6.4377,-6.4372,-6.437,-6.4375,-6.438,-6.4522,0,0,-6.4396,-6.4398,0,0,0,0,0,0,0,0,-6.444,-6.4446,-6.447,-6.4465,-6.4458,-6.4452,-6.4485,-6.4526,-6.439,-6.4413,-6.4376,-6.4369,-6.4404,-6.4406,-6.4417,-6.4522,-6.4522,-6.4396,-6.4399,-6.4401,-6.4403,0,0,0,0,0,0,0,-6.4438,-6.4445,-6.453,-6.4471,-6.4463,-6.4428,-6.4426,-6.4492,-6.4439,-6.4411,-6.44,-6.4402,-6.4399,-6.4413,-6.4416,-6.4522,-6.4396,-6.44,-6.4404,-6.4406,-6.4745,-6.4751,0,0,0,0,0,0,-6.4445,-6.4444,-6.453,-6.4529,-6.4435,-6.4435,-6.4432,-6.446,-6.4438,-6.443,-6.4407,-6.4396,-6.4407,-6.4411,-6.4416,-6.4582,-6.4401,-6.4406,-6.4409,-6.4739,-6.4746,-6.4753,0,0,0,0,0,0,-6.4443,-6.4454,-6.453,-6.4484,-6.4491,-6.4442,-6.4474,-6.4463,-6.4476,-6.4436,-6.4425,-6.4431,-6.4403,-6.4409,-6.4497,-6.458,-6.4408,-6.4413,-6.4732,-6.4741,-6.475,-6.4915,0,0,0,0,0,0,-6.4441,-6.4455,-6.4508,-6.4486,-6.4494,-6.4612,-6.4479,-6.4466,-6.4485,-6.447,-6.4455,-6.4447,-6.4399,-6.4491,-6.4502,-6.4584,-6.4417,-6.4724,-6.4736,-6.4747,-6.4902,-6.4929,-6.4952,0,0,0,0,0,-6.4437,-6.4554,-6.4512,-6.4523,-6.456,-6.4617,-6.4621,-6.4564,-6.4493,-6.4546,-6.452,-6.4448,-6.4569,-6.4501,-6.4513,-6.4597,-6.4719,-6.4733,-6.4746,-6.4891,-6.4924,-6.4951,0,0,0,0,0,0,-6.4586,-6.455,-6.4502,-6.4616,-6.4621,-6.4593,-6.4659,-6.46,-6.4624,-6.4609,-6.4536,-6.4534,-6.4635,-6.4624,-6.4549,-6.4734,-6.4631,-6.4648,-6.4738,-6.4768,-6.4792,-6.4793,-6.4421,0,0,0,0,0,-6.4633,-6.4682,-6.4648,-6.4752,-6.4757,-6.4708,-6.4731,-6.4686,-6.4687,-6.4688,-6.4669,-6.4673,-6.4712,-6.4739,-6.4772,-6.49,-6.4895,-6.4964,-6.4988,-6.5009,-6.5024,-6.5092,-6.5123,-6.4797,-6.4797,-6.4797,0,0,-6.4729,-6.4715,-6.4751,-6.4782,-6.478,-6.4833,-6.471,-6.4771,-6.481,-6.4697,-6.4781,-6.4767,-6.4766,-6.4876,-6.4923,-6.487,-6.5113,-6.5026,-6.5042,-6.5047,-6.5109,-6.514,-6.5168,-6.4806,-6.4805,-6.4803,0,0,-6.4931,-6.4926,-6.5012,-6.5014,-6.5013,-6.498,-6.5001,-6.4982,-6.4969,-6.5052,-6.4969,-6.5013,-6.5082,-6.5085,-6.5096,-6.5302,-6.5237,-6.5315,-6.5444,-6.5512,-6.5537,-6.556,-6.5635,-6.5662,-6.533,-6.5331,-6.5331,0,-6.505,-6.5128,-6.5064,-6.5132,-6.5148,-6.5049,-6.5137,-6.5141,-6.5151,-6.5165,-6.5105,-6.519,-6.5183,-6.5292,-6.5343,-6.5355,-6.5377,-6.5317,-6.5539,-6.5561,-6.558,-6.5651,-6.5679,-6.534,-6.5339,-6.5338,-6.5337,0,-6.5275,-6.533,-6.54,-6.5414,-6.5438,-6.5516,-6.5464,-6.5496,-6.5449,-6.5423,-6.5509,-6.5496,-6.5527,-6.5549,-6.5503,-6.5653,-6.562,-6.5551,-6.5446,-6.5622,-6.5688,-6.5714,-6.5354,-6.5351,-6.5348,-6.5345,0,0,-6.5572,-6.5551,-6.5577,-6.5583,-6.5576,-6.5617,-6.569,-6.572,-6.575,-6.576,-6.582,-6.5881,-6.5817,-6.583,-6.5784,-6.5843,-6.6009,-6.5766,-6.5765,-6.5813,-6.6175,-6.6228,-6.6261,-6.5965,-6.597,-6.5974,-6.6175,0,-6.5769,-6.5893,-6.5839,-6.5968,-6.6019,-6.5926,-6.599,-6.5993,-6.597,-6.6009,-6.5983,-6.6029,-6.594,-6.5948,-6.6002,-6.5978,-6.6081,-6.5962,-6.6021,-6.6024,-6.6026,-6.6294,-6.635,-6.6541,-6.62,-6.6204,-6.6208,0,-6.6016,-6.6038,-6.6174,-6.6159,-6.6178,-6.6236,-6.626,-6.6299,-6.63,-6.628,-6.6295,-6.6236,-6.6307,-6.6202,-6.6299,-6.622,-6.6241,-6.6233,-6.6239,-6.6243,-6.6128,-6.6308,-6.66,-6.663,-6.6247,-6.6244,-6.6241,0,-6.6221,-6.6284,-6.6374,-6.6382,-6.6366,-6.6409,-6.6405,-6.64,-6.6423,-6.6443,-6.6457,-6.6486,-6.6502,-6.6526,-6.6477,-6.6405,-6.6582,-6.6472,-6.6567,-6.6569,-6.661,-6.6608,-6.6912,-6.6621,-6.6621,-6.662,-6.662,0,-6.6447,-6.6534,-6.6466,-6.6522,-6.6616,-6.6553,-6.6648,-6.6633,-6.6631,-6.6682,-6.6602,-6.6652,-6.6583,-6.6626,-6.6588,-6.6675,-6.6683,-6.6669,-6.6658,-6.6677,-6.6679,-6.6691,-6.6677,-6.6628,-6.6626,-6.6625,-6.6623,0,-6.6693,-6.665,-6.6742,-6.672,-6.6717,-6.6788,-6.6769,-6.682,-6.6792,-6.6858,-6.6869,-6.6826,-6.6872,-6.6825,-6.6868,-6.6843,-6.6961,-6.693,-6.6961,-6.6953,-6.7052,-6.7044,-6.7374,-6.7415,-6.7097,-6.71,-6.7103,0,-6.6841,-6.6906,-6.6892,-6.6921,-6.6921,-6.6969,-6.6991,-6.6931,-6.6958,-6.6965,-6.7015,-6.7055,-6.7084,-6.7164,-6.7136,-6.7169,-6.7139,-6.7253,-6.7144,-6.7161,-6.7143,-6.7141,-6.7148,-6.7276,-6.7279,-6.7282,-6.7285,0,-6.7109,-6.7085,-6.7121,-6.7151,-6.7181,-6.7201,-6.7215,-6.7243,-6.7181,-6.7215,-6.7263,-6.7285,-6.733,-6.7372,-6.7397,-6.7392,-6.733,-6.7319,-6.7343,-6.7364,-6.7381,-6.7375,-6.7024,-6.7312,-6.731,-6.7308,-6.7306,-6.7305,-6.7311,-6.7365,-6.7365,-6.7408,-6.7412,-6.7428,-6.7475,-6.7453,-6.7492,-6.7524,-6.7486,-6.7545,-6.7545,-6.7573,-6.7576,-6.7621,-6.7573,-6.7607,-6.7616,-6.7626,-6.7642,-6.7373,-6.7625,-6.7624,-6.7623,-6.7622,-6.7622,0,-6.7577,-6.7572,-6.7613,-6.7636,-6.767,-6.7608,-6.7621,-6.7654,-6.7706,-6.7712,-6.7743,-6.7799,-6.7839,-6.7815,-6.7849,-6.789,-6.7863,-6.7902,-6.7899,-6.7899,-6.7682,-6.7658,-6.7924,-6.7924,-6.7924,-6.7923,-6.7923,-6.7923,-6.7719,-6.7809,-6.7785,-6.7876,-6.787,-6.7927,-6.794,-6.7954,-6.7959,-6.8025,-6.8058,-6.8042,-6.8037,-6.807,-6.8105,-6.8097,-6.8114,-6.8164,-6.8146,-6.7944,-6.7914,-6.7886,-6.7864,-6.8168,-6.8168,-6.836,-6.8362,-6.8363]}]]